AMSC 1

Last updated on Fri Jul 05 2024 00:02:38 GMT+0000 (Coordinated Universal Time)

1 23553U 95019A 24185.21716014 -.00000048 00000+0 00000+0 0 9995 2 23553 12.6297 21.2323 0012323 297.3180 248.4743 0.98909508107021
UTC large
Height (km)
Speed (km/s)
/
Latitude / Longitude
Inclination (degrees)
Orbital Period (minutes)
Azimuth
Elevation
Range (km)
Doppler Factor

Next 0 passes for location: London (51.5072 / 0.1276)

Sorry there are no passes over London.